| time (UTC) | temp F | wind direction | speed knots | gust knots | rain 1hr in | rain 24hr in | rain mn in | humidity % | barometer mb |
| 20260507105351 | 31 | 230 | 2.6 | 4.3 | 0.00 | 0.00 | 0.00 | 88 | 1010.2 |
| 20260507104851 | 31 | 228 | 1.7 | 3.5 | 0.00 | 0.00 | 0.00 | 87 | 1010.2 |
| 20260507104347 | 31 | 244 | 1.7 | 3.5 | 0.00 | 0.00 | 0.00 | 87 | 1010.2 |
| 20260507103850 | 31 | 244 | 1.7 | 3.5 | 0.00 | 0.00 | 0.00 | 87 | 1010.1 |
| 20260507103346 | 31 | 245 | 1.7 | 2.6 | 0.00 | 0.00 | 0.00 | 87 | 1010.1 |
| 20260507102848 | 30 | 247 | 1.7 | 2.6 | 0.00 | 0.00 | 0.00 | 87 | 1010.1 |
| 20260507102347 | 30 | 252 | 1.7 | 2.6 | 0.00 | 0.00 | 0.00 | 87 | 1010.1 |
| 20260507102130 | 30 | 258 | 1.7 | 2.6 | 0.00 | 0.00 | 0.00 | 87 | 1010.0 |
| 20260507101347 | 30 | 255 | 1.7 | 2.6 | 0.00 | 0.00 | 0.00 | 86 | 1010.2 |
| 20260507100847 | 30 | 255 | 0.9 | 2.6 | 0.00 | 0.00 | 0.00 | 86 | 1010.1 |
| 20260507100345 | 30 | 245 | 1.7 | 5.2 | 0.00 | 0.00 | 0.00 | 86 | 1010.2 |
| 20260507095844 | 30 | 243 | 1.7 | 5.2 | 0.00 | 0.00 | 0.00 | 86 | 1010.2 |
| 20260507095613 | 30 | 241 | 2.6 | 5.2 | 0.00 | 0.00 | 0.00 | 86 | 1010.2 |
| 20260507095123 | 30 | 237 | 2.6 | 4.3 | 0.00 | 0.00 | 0.00 | 86 | 1010.1 |
| 20260507094607 | 30 | 237 | 1.7 | 2.6 | 0.00 | 0.00 | 0.00 | 86 | 1010.1 |
| 20260507094106 | 30 | 234 | 1.7 | 2.6 | 0.00 | 0.00 | 0.00 | 85 | 1010.1 |
| 20260507093337 | 30 | 247 | 1.7 | 2.6 | 0.00 | 0.00 | 0.00 | 85 | 1010.1 |
| 20260507092840 | 30 | 252 | 1.7 | 2.6 | 0.00 | 0.00 | 0.00 | 85 | 1010.2 |
| 20260507092337 | 31 | 252 | 0.9 | 2.6 | 0.00 | 0.00 | 0.00 | 85 | 1010.2 |
| 20260507091837 | 31 | 245 | 1.7 | 2.6 | 0.00 | 0.00 | 0.00 | 85 | 1010.3 |
| 20260507091333 | 31 | 237 | 1.7 | 2.6 | 0.00 | 0.00 | 0.00 | 84 | 1010.3 |
| 20260507090832 | 31 | 279 | 0.9 | 2.6 | 0.00 | 0.00 | 0.00 | 85 | 1010.2 |
| 20260507090331 | 31 | 275 | 1.7 | 2.6 | 0.00 | 0.00 | 0.00 | 84 | 1010.2 |
| 20260507085832 | 31 | 274 | 1.7 | 2.6 | 0.00 | 0.00 | 0.00 | 84 | 1010.3 |
| 20260507085331 | 31 | 255 | 1.7 | 2.6 | 0.00 | 0.00 | 0.00 | 84 | 1010.3 |
| 20260507084831 | 31 | 247 | 1.7 | 4.3 | 0.00 | 0.00 | 0.00 | 84 | 1010.3 |
| 20260507084600 | 31 | 251 | 1.7 | 4.3 | 0.00 | 0.00 | 0.00 | 84 | 1010.3 |
| 20260507084102 | 31 | 241 | 1.7 | 3.5 | 0.00 | 0.00 | 0.00 | 83 | 1010.3 |
| 20260507083331 | 31 | 244 | 1.7 | 2.6 | 0.00 | 0.00 | 0.00 | 83 | 1010.4 |
| 20260507082831 | 31 | 251 | 1.7 | 3.5 | 0.00 | 0.00 | 0.00 | 83 | 1010.4 |
| 20260507082331 | 31 | 248 | 2.6 | 3.5 | 0.00 | 0.00 | 0.00 | 83 | 1010.4 |
| 20260507081831 | 31 | 245 | 1.7 | 3.5 | 0.00 | 0.00 | 0.00 | 82 | 1010.4 |
| 20260507081331 | 31 | 250 | 1.7 | 3.5 | 0.00 | 0.00 | 0.00 | 82 | 1010.4 |
| 20260507081102 | 31 | 252 | 2.6 | 3.5 | 0.00 | 0.00 | 0.00 | 82 | 1010.4 |
| 20260507080331 | 31 | 257 | 1.7 | 2.6 | 0.00 | 0.00 | 0.00 | 81 | 1010.4 |
| 20260507075830 | 31 | 251 | 1.7 | 3.5 | 0.00 | 0.00 | 0.00 | 81 | 1010.5 |
| 20260507075556 | 32 | 261 | 1.7 | 3.5 | 0.00 | 0.00 | 0.00 | 81 | 1010.5 |
| 20260507074832 | 32 | 240 | 1.7 | 3.5 | 0.00 | 0.00 | 0.00 | 81 | 1010.6 |
| 20260507074557 | 32 | 238 | 1.7 | 3.5 | 0.00 | 0.00 | 0.00 | 80 | 1010.6 |
| 20260507073831 | 32 | 247 | 1.7 | 3.5 | 0.00 | 0.00 | 0.00 | 80 | 1010.6 |
| 20260507073331 | 32 | 245 | 1.7 | 3.5 | 0.00 | 0.00 | 0.00 | 79 | 1010.6 |
| 20260507072831 | 33 | 244 | 1.7 | 2.6 | 0.00 | 0.00 | 0.00 | 79 | 1010.6 |
| 20260507072334 | 33 | 268 | 1.7 | 2.6 | 0.00 | 0.00 | 0.00 | 79 | 1010.6 |
| 20260507071829 | 33 | 268 | 1.7 | 2.6 | 0.00 | 0.00 | 0.00 | 78 | 1010.5 |
| 20260507071330 | 33 | 230 | 1.7 | 3.5 | 0.00 | 0.00 | 0.00 | 78 | 1010.5 |
| 20260507070828 | 33 | 262 | 1.7 | 3.5 | 0.00 | 0.00 | 0.00 | 78 | 1010.6 |
| 20260507070551 | 33 | 250 | 1.7 | 3.5 | 0.00 | 0.00 | 0.00 | 78 | 1010.7 |
| 20260507065828 | 34 | 257 | 1.7 | 3.5 | 0.00 | 0.00 | 0.00 | 78 | 1010.6 |
| 20260507065326 | 34 | 237 | 2.6 | 4.3 | 0.00 | 0.00 | 0.00 | 78 | 1010.7 |
| 20260507064825 | 34 | 245 | 2.6 | 4.3 | 0.00 | 0.00 | 0.00 | 77 | 1010.8 |
| 20260507064322 | 34 | 244 | 2.6 | 4.3 | 0.00 | 0.00 | 0.00 | 77 | 1010.9 |
| 20260507063320 | 35 | 247 | 2.6 | 3.5 | 0.00 | 0.00 | 0.00 | 76 | 1010.9 |
| 20260507063048 | 35 | 238 | 1.7 | 3.5 | 0.00 | 0.00 | 0.00 | 76 | 1010.9 |
| 20260507062318 | 35 | 245 | 2.6 | 3.5 | 0.00 | 0.00 | 0.00 | 76 | 1010.9 |
| 20260507062042 | 36 | 250 | 1.7 | 3.5 | 0.00 | 0.00 | 0.00 | 76 | 1010.9 |
| 20260507061312 | 36 | 240 | 1.7 | 1.7 | 0.00 | 0.00 | 0.00 | 75 | 1010.8 |
| 20260507060808 | 36 | 265 | 0.0 | 0.0 | 0.00 | 0.00 | 0.00 | 75 | 1010.8 |
| 20260507060310 | 36 | 265 | 0.0 | 0.9 | 0.00 | 0.00 | 0.00 | 75 | 1010.9 |
| 20260507060034 | 36 | 267 | 0.0 | 1.7 | 0.00 | 0.00 | 0.00 | 76 | 1011.0 |
| 20260507055306 | 36 | 271 | 0.9 | 2.6 | 0.00 | 0.00 | 0.00 | 76 | 1011.1 |
| 20260507054804 | 36 | 227 | 0.9 | 2.6 | 0.00 | 0.00 | 0.00 | 76 | 1011.0 |
| 20260507054534 | 36 | 310 | 0.0 | 1.7 | 0.00 | 0.00 | 0.00 | 77 | 1011.1 |
| 20260507053803 | 36 | 19 | 0.0 | 2.6 | 0.00 | 0.00 | 0.00 | 78 | 1011.2 |
| 20260507053302 | 36 | 32 | 0.9 | 2.6 | 0.00 | 0.00 | 0.00 | 78 | 1011.2 |
| 20260507053030 | 36 | 259 | 1.7 | 2.6 | 0.00 | 0.00 | 0.00 | 78 | 1011.2 |
| 20260507052306 | 36 | 250 | 1.7 | 3.5 | 0.00 | 0.00 | 0.00 | 78 | 1011.3 |
| 20260507051800 | 35 | 262 | 1.7 | 3.5 | 0.00 | 0.00 | 0.00 | 79 | 1011.4 |
| 20260507051300 | 35 | 258 | 1.7 | 3.5 | 0.00 | 0.00 | 0.00 | 79 | 1011.4 |
| 20260507050758 | 35 | 254 | 1.7 | 2.6 | 0.00 | 0.00 | 0.00 | 79 | 1011.4 |
| 20260507050258 | 35 | 252 | 0.9 | 2.6 | 0.00 | 0.00 | 0.00 | 78 | 1011.4 |
| 20260507045756 | 35 | 261 | 0.9 | 2.6 | 0.00 | 0.00 | 0.00 | 78 | 1011.3 |
| 20260507045255 | 35 | 267 | 0.9 | 2.6 | 0.00 | 0.00 | 0.00 | 78 | 1011.4 |
| 20260507044756 | 35 | 255 | 1.7 | 2.6 | 0.00 | 0.00 | 0.00 | 78 | 1011.4 |
| 20260507044256 | 35 | 252 | 1.7 | 2.6 | 0.00 | 0.00 | 0.00 | 78 | 1011.4 |
| 20260507044027 | 35 | 261 | 1.7 | 2.6 | 0.00 | 0.00 | 0.00 | 78 | 1011.4 |
| 20260507043251 | 35 | 254 | 1.7 | 2.6 | 0.00 | 0.00 | 0.00 | 77 | 1011.5 |
| 20260507043023 | 36 | 259 | 1.7 | 2.6 | 0.00 | 0.00 | 0.00 | 77 | 1011.4 |
| 20260507042249 | 36 | 274 | 1.7 | 2.6 | 0.00 | 0.00 | 0.00 | 76 | 1011.5 |
| 20260507041749 | 36 | 272 | 1.7 | 2.6 | 0.00 | 0.00 | 0.00 | 76 | 1011.5 |
| 20260507041247 | 36 | 258 | 0.9 | 1.7 | 0.00 | 0.00 | 0.00 | 76 | 1011.5 |
| 20260507040746 | 36 | 255 | 0.9 | 2.6 | 0.00 | 0.00 | 0.00 | 76 | 1011.5 |
| 20260507040248 | 37 | 276 | 1.7 | 2.6 | 0.00 | 0.00 | 0.00 | 75 | 1011.5 |
| 20260507035741 | 37 | 255 | 1.7 | 2.6 | 0.00 | 0.00 | 0.00 | 75 | 1011.4 |
| 20260507035241 | 37 | 272 | 0.9 | 2.6 | 0.00 | 0.00 | 0.00 | 74 | 1011.4 |
| 20260507035008 | 37 | 276 | 1.7 | 2.6 | 0.00 | 0.00 | 0.00 | 74 | 1011.3 |
| 20260507034243 | 38 | 272 | 1.7 | 2.6 | 0.00 | 0.00 | 0.00 | 74 | 1011.4 |
| 20260507033740 | 38 | 268 | 1.7 | 2.6 | 0.00 | 0.00 | 0.00 | 73 | 1011.4 |
| 20260507033240 | 38 | 248 | 0.9 | 1.7 | 0.00 | 0.00 | 0.00 | 73 | 1011.4 |
| 20260507032740 | 38 | 250 | 0.9 | 1.7 | 0.00 | 0.00 | 0.00 | 72 | 1011.4 |
| 20260507032238 | 39 | 254 | 0.0 | 1.7 | 0.00 | 0.00 | 0.00 | 72 | 1011.5 |
| 20260507031238 | 39 | 269 | 0.9 | 2.6 | 0.00 | 0.00 | 0.00 | 71 | 1011.6 |
| 20260507030735 | 39 | 274 | 0.9 | 3.5 | 0.00 | 0.00 | 0.00 | 70 | 1011.6 |
| 20260507030234 | 39 | 274 | 1.7 | 3.5 | 0.00 | 0.00 | 0.00 | 71 | 1011.6 |
| 20260507025734 | 39 | 310 | 1.7 | 2.6 | 0.00 | 0.00 | 0.00 | 71 | 1011.6 |
| 20260507025501 | 40 | 283 | 0.9 | 3.5 | 0.00 | 0.00 | 0.00 | 72 | 1011.6 |
| 20260507024735 | 40 | 286 | 0.9 | 3.5 | 0.00 | 0.00 | 0.00 | 72 | 1011.6 |
| 20260507024233 | 40 | 309 | 0.9 | 2.6 | 0.00 | 0.00 | 0.00 | 73 | 1011.5 |
| 20260507023732 | 40 | 283 | 0.0 | 1.7 | 0.00 | 0.00 | 0.00 | 73 | 1011.3 |
| 20260507023233 | 40 | 316 | 0.0 | 2.6 | 0.00 | 0.00 | 0.00 | 73 | 1011.3 |
| 20260507022732 | 40 | 300 | 0.9 | 2.6 | 0.00 | 0.00 | 0.00 | 74 | 1011.4 |
| 20260507022232 | 40 | 317 | 0.0 | 2.6 | 0.00 | 0.00 | 0.00 | 74 | 1011.3 |
| 20260507021731 | 40 | 295 | 0.0 | 2.6 | 0.00 | 0.00 | 0.00 | 74 | 1011.3 |
| 20260507021231 | 40 | 334 | 1.7 | 2.6 | 0.00 | 0.00 | 0.00 | 72 | 1011.3 |
| 20260507020734 | 40 | 331 | 0.0 | 2.6 | 0.00 | 0.00 | 0.00 | 72 | 1011.3 |
| 20260507020458 | 40 | 329 | 1.7 | 2.6 | 0.00 | 0.00 | 0.00 | 71 | 1011.3 |
| 20260507015732 | 40 | 322 | 0.9 | 2.6 | 0.00 | 0.00 | 0.00 | 71 | 1011.3 |
| 20260507015231 | 40 | 281 | 0.9 | 2.6 | 0.00 | 0.00 | 0.00 | 71 | 1011.2 |
| 20260507014731 | 40 | 261 | 1.7 | 2.6 | 0.00 | 0.00 | 0.00 | 71 | 1011.2 |
| 20260507014231 | 40 | 259 | 1.7 | 2.6 | 0.00 | 0.00 | 0.00 | 70 | 1011.2 |
| 20260507013732 | 41 | 247 | 0.9 | 3.5 | 0.00 | 0.00 | 0.00 | 70 | 1011.1 |
| 20260507013234 | 41 | 261 | 0.9 | 3.5 | 0.00 | 0.00 | 0.00 | 69 | 1011.1 |
| 20260507012732 | 41 | 272 | 1.7 | 4.3 | 0.00 | 0.00 | 0.00 | 69 | 1011.1 |
| 20260507012232 | 41 | 296 | 0.9 | 4.3 | 0.00 | 0.00 | 0.00 | 69 | 1011.1 |
| 20260507011731 | 41 | 307 | 0.9 | 4.3 | 0.00 | 0.00 | 0.00 | 69 | 1011.1 |
| 20260507011232 | 41 | 334 | 1.7 | 4.3 | 0.00 | 0.00 | 0.00 | 69 | 1010.9 |
| 20260507010731 | 41 | 334 | 0.9 | 4.3 | 0.00 | 0.00 | 0.00 | 70 | 1011.0 |
| 20260507010232 | 41 | 351 | 1.7 | 4.3 | 0.00 | 0.00 | 0.00 | 68 | 1011.0 |
| 20260507005726 | 41 | 316 | 1.7 | 4.3 | 0.00 | 0.00 | 0.00 | 68 | 1011.0 |
| 20260507005454 | 41 | 322 | 1.7 | 6.1 | 0.00 | 0.00 | 0.00 | 68 | 1010.9 |
| 20260507004724 | 41 | 0 | 2.6 | 6.1 | 0.00 | 0.00 | 0.00 | 70 | 1011.0 |
| 20260507004224 | 41 | 243 | 1.7 | 4.3 | 0.00 | 0.00 | 0.00 | 73 | 1010.9 |
| 20260507003724 | 41 | 338 | 2.6 | 6.1 | 0.00 | 0.00 | 0.00 | 72 | 1010.9 |
| 20260507003225 | 41 | 340 | 2.6 | 6.1 | 0.00 | 0.00 | 0.00 | 71 | 1010.8 |
| 20260507002947 | 41 | 320 | 1.7 | 6.1 | 0.00 | 0.00 | 0.00 | 71 | 1010.8 |
| 20260507002223 | 41 | 333 | 2.6 | 6.1 | 0.00 | 0.00 | 0.00 | 73 | 1010.8 |
| 20260507001723 | 41 | 2 | 1.7 | 6.1 | 0.00 | 0.00 | 0.00 | 74 | 1010.8 |
| 20260507001223 | 41 | 358 | 3.5 | 7.8 | 0.00 | 0.00 | 0.00 | 73 | 1010.8 |
| 20260507000723 | 41 | 334 | 3.5 | 9.6 | 0.00 | 0.00 | 0.00 | 72 | 1010.8 |
| 20260507000223 | 41 | 340 | 4.3 | 10.4 | 0.00 | 0.00 | 0.00 | 73 | 1010.7 |
| 20260506235726 | 41 | 305 | 3.5 | 10.4 | 0.00 | 0.00 | 0.00 | 74 | 1010.7 |
| 20260506235220 | 41 | 11 | 3.5 | 6.1 | 0.00 | 0.00 | 0.00 | 75 | 1010.7 |
| 20260506234720 | 41 | 312 | 2.6 | 6.1 | 0.00 | 0.00 | 0.00 | 75 | 1010.6 |
| 20260506234219 | 41 | 336 | 2.6 | 8.7 | 0.00 | 0.00 | 0.00 | 74 | 1010.7 |
| 20260506233718 | 41 | 31 | 2.6 | 8.7 | 0.00 | 0.00 | 0.00 | 74 | 1010.7 |
| 20260506232717 | 41 | 28 | 3.5 | 9.6 | 0.00 | 0.00 | 0.00 | 73 | 1010.7 |
| 20260506232458 | 41 | 327 | 4.3 | 9.6 | 0.00 | 0.00 | 0.00 | 73 | 1010.6 |
| 20260506231718 | 41 | 351 | 3.5 | 12.2 | 0.00 | 0.00 | 0.00 | 73 | 1010.6 |
| 20260506231217 | 41 | 324 | 5.2 | 12.2 | 0.00 | 0.00 | 0.00 | 73 | 1010.8 |
| 20260506230938 | 41 | 340 | 3.5 | 10.4 | 0.00 | 0.00 | 0.00 | 73 | 1010.7 |
| 20260506230215 | 41 | 348 | 4.3 | 11.3 | 0.00 | 0.00 | 0.00 | 73 | 1010.7 |
| 20260506225659 | 41 | 323 | 5.2 | 10.4 | 0.00 | 0.00 | 0.00 | 73 | 1010.7 |
| 20260506225427 | 41 | 0 | 3.5 | 9.6 | 0.00 | 0.00 | 0.00 | 73 | 1010.7 |
| 20260506224700 | 41 | 0 | 4.3 | 9.6 | 0.00 | 0.00 | 0.00 | 72 | 1010.8 |
| 20260506224203 | 42 | 323 | 4.3 | 11.3 | 0.00 | 0.00 | 0.00 | 71 | 1010.8 |
| 20260506223657 | 42 | 320 | 6.1 | 11.3 | 0.00 | 0.00 | 0.00 | 70 | 1010.7 |
| 20260506223157 | 42 | 343 | 7.0 | 11.3 | 0.00 | 0.00 | 0.00 | 69 | 1010.6 |
| 20260506222925 | 42 | 353 | 4.3 | 12.2 | 0.00 | 0.00 | 0.00 | 69 | 1010.5 |
| 20260506222156 | 42 | 329 | 7.0 | 12.2 | 0.00 | 0.00 | 0.00 | 70 | 1010.6 |
| 20260506221922 | 42 | 330 | 3.5 | 10.4 | 0.00 | 0.00 | 0.00 | 69 | 1010.6 |
| 20260506221155 | 42 | 340 | 5.2 | 12.2 | 0.00 | 0.00 | 0.00 | 69 | 1010.7 |
| 20260506220656 | 42 | 357 | 4.3 | 12.2 | 0.00 | 0.00 | 0.00 | 69 | 1010.6 |
| 20260506220428 | 42 | 324 | 7.0 | 12.2 | 0.00 | 0.00 | 0.00 | 71 | 1010.5 |
| 20260506215627 | 42 | 314 | 5.2 | 12.2 | 0.00 | 0.00 | 0.00 | 71 | 1010.4 |
| 20260506215127 | 42 | 338 | 5.2 | 10.4 | 0.00 | 0.00 | 0.00 | 71 | 1010.4 |
| 20260506214627 | 42 | 17 | 5.2 | 11.3 | 0.00 | 0.00 | 0.00 | 72 | 1010.4 |
| 20260506214125 | 42 | 323 | 4.3 | 10.4 | 0.00 | 0.00 | 0.00 | 73 | 1010.4 |
| 20260506213852 | 42 | 333 | 5.2 | 10.4 | 0.00 | 0.00 | 0.00 | 72 | 1010.4 |
| 20260506213356 | 42 | 5 | 5.2 | 10.4 | 0.00 | 0.00 | 0.00 | 71 | 1010.3 |
| 20260506211621 | 42 | 7 | 3.5 | 11.3 | 0.00 | 0.00 | 0.00 | 71 | 1010.3 |
| 20260506211120 | 42 | 355 | 3.5 | 12.2 | 0.00 | 0.00 | 0.00 | 71 | 1010.3 |
| 20260506210620 | 42 | 331 | 4.3 | 12.2 | 0.00 | 0.00 | 0.00 | 69 | 1010.3 |
| 20260506210125 | 42 | 353 | 4.3 | 10.4 | 0.00 | 0.00 | 0.00 | 70 | 1010.2 |
| 20260506205522 | 42 | 55 | 4.3 | 10.4 | 0.00 | 0.00 | 0.00 | 70 | 1010.2 |
| 20260506205021 | 42 | 337 | 5.2 | 9.6 | 0.00 | 0.00 | 0.00 | 70 | 1010.3 |
| 20260506204520 | 42 | 324 | 2.6 | 9.6 | 0.00 | 0.00 | 0.00 | 69 | 1010.3 |
| 20260506204019 | 42 | 350 | 4.3 | 9.6 | 0.00 | 0.00 | 0.00 | 72 | 1010.2 |
| 20260506203745 | 41 | 327 | 1.7 | 7.8 | 0.00 | 0.00 | 0.00 | 72 | 1010.1 |
| 20260506203022 | 41 | 343 | 4.3 | 10.4 | 0.00 | 0.00 | 0.00 | 71 | 1010.2 |
| 20260506202520 | 41 | 340 | 5.2 | 11.3 | 0.00 | 0.00 | 0.00 | 71 | 1010.3 |
| 20260506202020 | 41 | 2 | 3.5 | 11.3 | 0.00 | 0.00 | 0.00 | 71 | 1010.3 |
| 20260506201520 | 41 | 350 | 4.3 | 10.4 | 0.00 | 0.00 | 0.00 | 71 | 1010.3 |
| 20260506201022 | 41 | 7 | 4.3 | 10.4 | 0.00 | 0.00 | 0.00 | 71 | 1010.4 |
| 20260506200519 | 41 | 345 | 3.5 | 10.4 | 0.00 | 0.00 | 0.00 | 70 | 1010.3 |
| 20260506200019 | 42 | 290 | 5.2 | 11.3 | 0.00 | 0.00 | 0.00 | 70 | 1010.3 |
| 20260506195018 | 42 | 309 | 7.0 | 12.2 | 0.00 | 0.00 | 0.00 | 71 | 1010.2 |
| 20260506194521 | 42 | 327 | 3.5 | 9.6 | 0.00 | 0.00 | 0.00 | 70 | 1010.2 |
| 20260506194019 | 42 | 334 | 3.5 | 10.4 | 0.00 | 0.00 | 0.00 | 69 | 1010.3 |
| 20260506193517 | 42 | 314 | 4.3 | 13.0 | 0.00 | 0.00 | 0.00 | 68 | 1010.2 |
| 20260506193016 | 42 | 327 | 5.2 | 13.0 | 0.00 | 0.00 | 0.00 | 68 | 1010.2 |
| 20260506192512 | 42 | 341 | 4.3 | 11.3 | 0.00 | 0.00 | 0.00 | 68 | 1010.2 |
| 20260506192012 | 42 | 344 | 6.1 | 10.4 | 0.00 | 0.00 | 0.00 | 69 | 1010.2 |
| 20260506191512 | 42 | 0 | 4.3 | 11.3 | 0.00 | 0.00 | 0.00 | 69 | 1010.2 |
| 20260506191015 | 42 | 354 | 6.1 | 13.9 | 0.00 | 0.00 | 0.00 | 68 | 1010.2 |
| 20260506190007 | 42 | 21 | 4.3 | 13.9 | 0.00 | 0.00 | 0.00 | 68 | 1010.3 |
| 20260506185506 | 42 | 2 | 4.3 | 10.4 | 0.00 | 0.00 | 0.00 | 68 | 1010.2 |
| 20260506185005 | 42 | 7 | 4.3 | 11.3 | 0.00 | 0.00 | 0.00 | 68 | 1010.2 |
| 20260506184506 | 42 | 310 | 3.5 | 11.3 | 0.00 | 0.00 | 0.00 | 68 | 1010.3 |
| 20260506184004 | 42 | 4 | 4.3 | 11.3 | 0.00 | 0.00 | 0.00 | 68 | 1010.3 |
| 20260506183503 | 42 | 329 | 3.5 | 9.6 | 0.00 | 0.00 | 0.00 | 69 | 1010.2 |
| 20260506183006 | 42 | 350 | 5.2 | 9.6 | 0.00 | 0.00 | 0.00 | 68 | 1010.2 |
| 20260506182003 | 43 | 319 | 5.2 | 11.3 | 0.00 | 0.00 | 0.00 | 66 | 1010.2 |
| 20260506181502 | 43 | 331 | 4.3 | 11.3 | 0.00 | 0.00 | 0.00 | 68 | 1010.2 |
| 20260506181002 | 42 | 326 | 1.7 | 10.4 | 0.00 | 0.00 | 0.00 | 69 | 1010.3 |
| 20260506180456 | 42 | 288 | 5.2 | 7.8 | 0.00 | 0.00 | 0.00 | 70 | 1010.4 |
| 20260506175957 | 42 | 30 | 3.5 | 7.8 | 0.00 | 0.00 | 0.00 | 69 | 1010.3 |
| 20260506175722 | 42 | 7 | 1.7 | 6.1 | 0.00 | 0.00 | 0.00 | 69 | 1010.4 |
| 20260506174953 | 42 | 338 | 2.6 | 7.8 | 0.00 | 0.00 | 0.00 | 69 | 1010.5 |
| 20260506174454 | 42 | 27 | 2.6 | 8.7 | 0.00 | 0.00 | 0.00 | 69 | 1010.4 |
| 20260506173955 | 42 | 25 | 3.5 | 8.7 | 0.00 | 0.00 | 0.00 | 67 | 1010.4 |
| 20260506173454 | 42 | 51 | 1.7 | 7.8 | 0.00 | 0.00 | 0.00 | 65 | 1010.5 |
| 20260506172954 | 42 | 340 | 2.6 | 6.1 | 0.00 | 0.00 | 0.00 | 66 | 1010.6 |
| 20260506172453 | 42 | 4 | 2.6 | 5.2 | 0.00 | 0.00 | 0.00 | 66 | 1010.7 |
| 20260506171951 | 42 | 17 | 1.7 | 7.8 | 0.00 | 0.00 | 0.00 | 68 | 1010.7 |
| 20260506170950 | 42 | 358 | 2.6 | 5.2 | 0.00 | 0.00 | 0.00 | 69 | 1010.8 |
| 20260506170449 | 42 | 357 | 3.5 | 6.1 | 0.00 | 0.00 | 0.00 | 69 | 1010.7 |
| 20260506165948 | 42 | 35 | 2.6 | 6.1 | 0.00 | 0.00 | 0.00 | 71 | 1010.8 |
| 20260506165448 | 42 | 73 | 0.9 | 6.1 | 0.00 | 0.00 | 0.00 | 73 | 1010.7 |
| 20260506164946 | 42 | 27 | 2.6 | 7.8 | 0.00 | 0.00 | 0.00 | 71 | 1010.7 |
| 20260506164446 | 42 | 71 | 3.5 | 7.8 | 0.00 | 0.00 | 0.00 | 69 | 1010.8 |
| 20260506163948 | 42 | 354 | 2.6 | 7.8 | 0.00 | 0.00 | 0.00 | 69 | 1010.8 |
| 20260506163445 | 42 | 24 | 3.5 | 6.1 | 0.00 | 0.00 | 0.00 | 67 | 1010.7 |
| 20260506162944 | 42 | 42 | 3.5 | 6.1 | 0.00 | 0.00 | 0.00 | 64 | 1010.7 |
| 20260506162444 | 42 | 9 | 3.5 | 6.1 | 0.00 | 0.00 | 0.00 | 64 | 1010.7 |
| 20260506162217 | 43 | 336 | 2.6 | 7.8 | 0.00 | 0.00 | 0.00 | 65 | 1010.7 |
| 20260506161443 | 43 | 28 | 3.5 | 7.8 | 0.00 | 0.00 | 0.00 | 64 | 1010.6 |
| 20260506160938 | 44 | 18 | 3.5 | 7.8 | 0.00 | 0.00 | 0.00 | 66 | 1010.6 |
| 20260506160700 | 43 | 41 | 2.6 | 6.1 | 0.00 | 0.00 | 0.00 | 69 | 1010.6 |
| 20260506155937 | 42 | 358 | 1.7 | 8.7 | 0.00 | 0.00 | 0.00 | 69 | 1010.6 |
| 20260506155438 | 42 | 343 | 4.3 | 8.7 | 0.00 | 0.00 | 0.00 | 68 | 1010.6 |
| 20260506154935 | 42 | 18 | 3.5 | 6.1 | 0.00 | 0.00 | 0.00 | 68 | 1010.5 |
| 20260506154435 | 42 | 314 | 1.7 | 6.1 | 0.00 | 0.00 | 0.00 | 69 | 1010.6 |
| 20260506153935 | 41 | 30 | 3.5 | 7.8 | 0.00 | 0.00 | 0.00 | 70 | 1010.5 |
| 20260506153435 | 42 | 358 | 3.5 | 7.8 | 0.00 | 0.00 | 0.00 | 69 | 1010.5 |
| 20260506152936 | 42 | 37 | 3.5 | 6.1 | 0.00 | 0.00 | 0.00 | 67 | 1010.5 |
| 20260506152658 | 42 | 8 | 2.6 | 6.1 | 0.00 | 0.00 | 0.00 | 66 | 1010.6 |
| 20260506152204 | 42 | 351 | 1.7 | 5.2 | 0.00 | 0.00 | 0.00 | 67 | 1010.6 |
| 20260506151433 | 42 | 18 | 2.6 | 5.2 | 0.00 | 0.00 | 0.00 | 66 | 1010.6 |
| 20260506150934 | 42 | 21 | 2.6 | 7.8 | 0.00 | 0.00 | 0.00 | 66 | 1010.6 |
| 20260506150434 | 42 | 344 | 2.6 | 7.8 | 0.00 | 0.00 | 0.00 | 64 | 1010.6 |
| 20260506145937 | 42 | 24 | 1.7 | 6.1 | 0.00 | 0.00 | 0.00 | 64 | 1010.6 |
| 20260506145702 | 42 | 25 | 2.6 | 6.1 | 0.00 | 0.00 | 0.00 | 64 | 1010.5 |
| 20260506144932 | 42 | 38 | 2.6 | 9.6 | 0.00 | 0.00 | 0.00 | 62 | 1010.5 |
| 20260506144434 | 42 | 5 | 3.5 | 9.6 | 0.00 | 0.00 | 0.00 | 60 | 1010.3 |
| 20260506143932 | 42 | 347 | 3.5 | 7.8 | 0.00 | 0.00 | 0.00 | 58 | 1010.4 |
| 20260506143431 | 42 | 344 | 3.5 | 8.7 | 0.00 | 0.00 | 0.00 | 58 | 1010.4 |
| 20260506142930 | 43 | 336 | 4.3 | 8.7 | 0.00 | 0.00 | 0.00 | 57 | 1010.4 |
| 20260506142701 | 42 | 247 | 0.9 | 6.1 | 0.00 | 0.00 | 0.00 | 58 | 1010.4 |
| 20260506141923 | 42 | 357 | 2.6 | 6.1 | 0.00 | 0.00 | 0.00 | 54 | 1010.5 |
| 20260506141423 | 43 | 340 | 3.5 | 7.8 | 0.00 | 0.00 | 0.00 | 54 | 1010.3 |
| 20260506140925 | 43 | 8 | 4.3 | 7.8 | 0.00 | 0.00 | 0.00 | 53 | 1010.3 |
| 20260506140423 | 43 | 18 | 1.7 | 7.8 | 0.00 | 0.00 | 0.00 | 54 | 1010.3 |
| 20260506135922 | 43 | 9 | 1.7 | 8.7 | 0.00 | 0.00 | 0.00 | 53 | 1010.3 |
| 20260506135425 | 43 | 327 | 2.6 | 8.7 | 0.00 | 0.00 | 0.00 | 53 | 1010.3 |
| 20260506134422 | 42 | 357 | 2.6 | 9.6 | 0.00 | 0.00 | 0.00 | 59 | 1010.2 |
| 20260506133922 | 42 | 8 | 1.7 | 7.8 | 0.00 | 0.00 | 0.00 | 58 | 1010.2 |
| 20260506133420 | 41 | 275 | 1.7 | 9.6 | 0.00 | 0.00 | 0.00 | 59 | 1010.2 |
| 20260506132920 | 41 | 293 | 4.3 | 9.6 | 0.00 | 0.00 | 0.00 | 59 | 1010.2 |
| 20260506132420 | 41 | 299 | 4.3 | 9.6 | 0.00 | 0.00 | 0.00 | 59 | 1010.2 |
| 20260506131920 | 41 | 317 | 3.5 | 7.8 | 0.00 | 0.00 | 0.00 | 58 | 1010.2 |
| 20260506131652 | 41 | 300 | 3.5 | 7.8 | 0.00 | 0.00 | 0.00 | 61 | 1010.1 |
| 20260506130923 | 42 | 329 | 1.7 | 7.8 | 0.00 | 0.00 | 0.00 | 62 | 1010.1 |
| 20260506130420 | 41 | 274 | 7.8 | 9.6 | 0.00 | 0.00 | 0.00 | 61 | 1010.2 |
| 20260506125920 | 41 | 292 | 6.1 | 9.6 | 0.00 | 0.00 | 0.00 | 63 | 1010.1 |
| 20260506125419 | 41 | 340 | 2.6 | 9.6 | 0.00 | 0.00 | 0.00 | 63 | 1010.1 |
| 20260506124915 | 40 | 358 | 6.1 | 9.6 | 0.00 | 0.00 | 0.00 | 65 | 1010.0 |
| 20260506124644 | 40 | 319 | 4.3 | 8.7 | 0.00 | 0.00 | 0.00 | 67 | 1010.0 |
| 20260506124143 | 40 | 286 | 4.3 | 7.8 | 0.00 | 0.00 | 0.00 | 67 | 1010.0 |
| 20260506123414 | 39 | 247 | 5.2 | 9.6 | 0.00 | 0.00 | 0.00 | 69 | 1010.0 |
| 20260506122915 | 39 | 299 | 3.5 | 9.6 | 0.00 | 0.00 | 0.00 | 69 | 1010.0 |
| 20260506122638 | 39 | 259 | 2.6 | 8.7 | 0.00 | 0.00 | 0.00 | 70 | 1010.1 |
| 20260506121912 | 38 | 262 | 6.1 | 8.7 | 0.00 | 0.00 | 0.00 | 71 | 1010.0 |
| 20260506121412 | 38 | 257 | 5.2 | 8.7 | 0.00 | 0.00 | 0.00 | 74 | 1010.0 |
| 20260506121139 | 37 | 278 | 2.6 | 6.1 | 0.00 | 0.00 | 0.00 | 76 | 1009.9 |
| 20260506120412 | 37 | 274 | 4.3 | 6.1 | 0.00 | 0.00 | 0.00 | 77 | 1010.0 |
| 20260506115912 | 36 | 295 | 3.5 | 6.1 | 0.00 | 0.00 | 0.00 | 78 | 1009.9 |
| 20260506115415 | 36 | 258 | 5.2 | 6.1 | 0.00 | 0.00 | 0.00 | 79 | 1009.8 |
| 20260506115139 | 36 | 258 | 2.6 | 5.2 | 0.00 | 0.00 | 0.00 | 80 | 1009.8 |
| 20260506114411 | 35 | 262 | 3.5 | 5.2 | 0.00 | 0.00 | 0.00 | 81 | 1009.7 |
| 20260506114136 | 35 | 268 | 2.6 | 4.3 | 0.00 | 0.00 | 0.00 | 83 | 1009.7 |
| 20260506113655 | 34 | 254 | 2.6 | 5.2 | 0.00 | 0.00 | 0.00 | 83 | 1009.6 |
| 20260506112909 | 34 | 274 | 2.6 | 5.2 | 0.00 | 0.00 | 0.00 | 84 | 1009.6 |
| 20260506112411 | 33 | 278 | 2.6 | 4.3 | 0.00 | 0.00 | 0.00 | 85 | 1009.6 |
| 20260506111906 | 33 | 282 | 1.7 | 4.3 | 0.00 | 0.00 | 0.00 | 86 | 1009.4 |
| 20260506111405 | 32 | 278 | 2.6 | 4.3 | 0.00 | 0.00 | 0.00 | 87 | 1009.2 |
| 20260506110908 | 32 | 264 | 1.7 | 3.5 | 0.00 | 0.00 | 0.00 | 87 | 1009.0 |
| 20260506110404 | 31 | 268 | 1.7 | 3.5 | 0.00 | 0.00 | 0.00 | 88 | 1009.1 |
| 20260506110127 | 31 | 269 | 1.7 | 3.5 | 0.00 | 0.00 | 0.00 | 88 | 1009.0 |